Location: Melbourne
(37.8170°S, 144.9670°E)
Time: 07:45:08
(UTC+11:00)

Explorer 11/Cluster Stage 4 - Visible Passes

Search period start: 23 October 2017 00:00
Search period end: 02 November 2017 00:00
Orbit: 467 x 1262 km, 28.8° (Epoch: 21 October)

Date Brightness Start Highest point End Pass type
(mag) Time Alt. Az. Time Alt. Az. Time Alt. Az.
27 Oct 8.4 05:11:57 10° NNE 05:12:22 10° NNE 05:12:47 10° NNE visible
28 Oct 8.2 05:00:24 11° N 05:02:11 13° NNE 05:04:07 10° NE visible
29 Oct 8.1 04:50:39 14° N 04:52:01 16° NNE 04:54:38 10° NE visible
30 Oct 7.9 04:40:52 17° N 04:41:50 18° NNE 04:44:58 10° NE visible
31 Oct 7.8 04:31:03 21° N 04:31:39 21° N 04:35:11 10° ENE visible
01 Nov 7.7 04:21:13 24° N 04:21:27 24° N 04:25:20 10° ENE visible
